Wind_Speed
16 16 15 15 15 16 16 16 16 16 16 16 16 15 15 15 14 15 15 16 18 19 20 20 20 20 20 19 17 16 16 14 15 14 9 9 17 24 26 27 29 29 30 30 29 27 24 22 20 18 16 15 13 11 12 13 12 12 12 10 6 3 2 3 4 3 5 8 9 6 6 5 3 3 5 6 4 3 3 2 1 3 6 5 7 8 8 11
17 17 16 16 16 15 15 15 16 16 16 16 16 16 16 15 15 14 14 15 15 16 18 19 20 20 21 20 19 18 17 16 15 13 10 12 18 22 25 28 31 30 31 32 30 27 25 23 22 20 18 17 14 13 13 14 14 12 13 12 7 4 5 5 4 4 7 10 10 8 6 7 6 5 5 6 6 5 4 3 1 4 6 5 6 7 9 12
18 18 18 17 17 17 16 16 16 16 16 15 15 16 16 16 16 15 14 14 14 14 15 16 18 20 21 21 20 18 18 17 15 12 11 13 15 18 22 26 29 29 29 30 29 27 25 23 22 21 20 19 16 15 15 16 14 11 12 11 6 6 7 6 3 3 7 9 11 10 7 8 8 7 6 6 7 6 5 2 0 1 3 5 5 5 8 12
19 19 19 19 18 18 18 18 17 17 16 16 15 15 16 16 16 16 15 14 14 13 13 14 16 18 20 20 20 19 18 18 15 12 12 12 13 17 20 23 25 26 27 28 29 28 27 25 24 23 22 21 19 17 18 17 13 11 11 7 5 8 9 6 2 4 7 9 11 10 8 8 8 9 8 7 6 6 6 2 1 1 1 3 3 4 8 11
20 20 19 19 19 19 19 19 19 19 18 17 16 16 16 16 16 16 16 15 14 13 12 12 14 16 18 19 19 19 18 17 14 13 12 12 14 17 20 22 24 25 27 29 30 30 30 29 28 27 25 23 21 20 21 18 14 14 11 6 7 10 9 5 1 4 6 8 9 10 10 10 8 10 10 7 3 3 5 4 4 3 3 3 2 3 7 10
21 21 21 21 20 20 20 20 20 20 19 19 18 18 18 17 16 16 15 15 14 13 12 12 13 14 15 17 18 18 19 15 9 10 11 10 13 17 21 23 24 26 28 30 32 32 32 32 32 30 27 25 23 22 21 17 15 16 11 8 10 10 8 6 1 4 6 7 8 10 11 11 11 12 13 11 3 1 2 3 4 4 5 4 4 4 6 9
22 22 22 22 22 21 21 21 20 20 20 20 19 19 20 19 18 17 15 14 14 13 12 12 13 13 14 15 15 18 20 15 10 13 13 9 10 15 20 23 24 26 29 32 34 34 34 34 33 31 28 26 24 24 21 17 17 17 12 11 12 10 8 7 5 5 5 6 8 11 12 12 14 15 14 12 7 5 3 1 1 3 5 3 5 7 6 7
22 22 22 22 22 22 22 22 21 21 20 20 20 21 21 20 19 18 16 15 13 13 13 13 13 13 14 13 14 16 13 8 13 19 17 11 10 14 18 22 25 27 28 30 32 33 33 33 33 31 29 27 26 25 23 20 19 19 14 12 13 12 10 9 10 8 6 7 10 13 13 13 15 17 12 8 10 9 7 5 4 1 3 3 5 9 10 9
24 24 23 23 23 23 23 23 22 21 21 20 21 21 21 20 19 18 18 16 15 14 13 13 13 13 14 13 14 11 5 9 14 18 17 13 13 15 16 20 24 27 27 27 29 31 32 33 32 31 29 27 27 26 24 23 22 20 17 15 15 14 13 13 13 9 10 11 13 15 14 15 16 18 12 10 13 14 12 10 7 4 2 3 5 10 11 11
25 25 25 25 25 25 24 24 24 23 22 21 21 21 21 20 19 19 18 17 17 16 15 14 13 14 13 13 13 6 7 15 18 17 17 14 15 16 16 18 23 26 26 26 28 30 31 30 29 30 30 28 28 27 26 25 23 21 20 19 18 17 16 16 14 12 13 14 14 16 15 16 17 17 15 12 12 14 15 15 11 8 5 3 5 9 12 12
25 25 26 26 26 26 26 26 26 25 23 23 23 22 20 19 19 19 18 18 18 18 17 15 15 14 13 14 11 6 10 18 18 18 18 16 17 17 16 17 20 24 25 25 26 27 26 26 26 28 30 30 29 28 28 27 23 21 22 21 20 19 19 18 15 13 15 15 14 15 17 20 20 17 14 11 12 14 16 17 15 11 9 6 6 9 13 14
25 25 26 26 26 26 26 27 27 26 26 25 24 23 21 20 19 19 19 18 18 18 18 17 17 15 15 12 6 7 13 18 19 18 17 17 18 18 17 16 17 21 22 23 24 24 24 25 27 29 30 31 30 28 27 28 26 23 23 24 23 22 22 20 16 15 17 16 14 15 19 23 21 14 10 9 12 15 17 19 18 14 12 10 8 9 12 15
25 25 26 26 27 27 27 27 27 27 27 26 26 25 24 22 20 19 19 18 18 18 18 18 18 17 17 9 6 12 14 16 20 20 18 18 19 19 18 17 16 18 20 21 22 23 24 26 27 29 30 30 29 27 24 25 26 25 24 25 24 24 24 21 17 18 18 17 15 14 18 23 19 13 11 9 10 14 17 20 20 17 15 14 11 9 11 15
26 26 26 27 27 28 28 28 27 27 27 26 27 26 26 24 23 21 20 19 18 18 19 19 19 19 16 6 10 16 15 16 19 18 18 19 19 20 19 17 16 18 20 21 21 21 22 25 26 28 31 32 30 28 25 22 20 22 24 26 27 25 25 23 19 19 18 17 16 14 19 25 21 17 16 13 12 14 17 19 21 19 16 16 14 12 11 13
28 28 28 28 28 29 30 29 28 28 27 27 27 27 26 26 25 23 22 21 19 19 19 19 19 20 18 9 11 16 17 17 16 16 19 20 21 20 19 18 16 17 20 23 23 21 21 22 25 28 31 33 32 29 26 23 19 18 18 21 27 28 26 24 20 19 19 17 16 16 20 24 22 20 18 17 15 15 17 19 21 20 18 16 16 15 12 12
29 29 29 29 29 30 31 31 29 29 29 28 27 27 27 26 26 25 24 23 21 20 20 20 19 21 20 13 14 18 20 20 16 19 24 23 22 21 21 20 19 18 19 23 25 25 24 23 26 29 30 32 33 31 28 26 24 21 18 17 22 27 27 25 21 20 20 18 18 18 21 23 22 20 17 18 17 16 18 20 21 21 20 18 17 16 15 13
29 29 29 29 29 30 31 32 31 30 29 29 28 27 27 26 26 26 25 25 24 22 21 21 21 22 21 15 15 17 19 22 22 23 25 26 25 24 25 24 23 22 21 23 26 26 27 27 28 29 32 33 34 33 29 27 27 25 22 21 21 23 24 24 20 17 16 16 16 17 22 23 21 21 19 18 18 18 20 20 21 22 21 20 19 18 17 15
31 30 29 29 29 30 31 32 32 31 30 30 29 28 27 26 26 25 25 25 25 24 23 23 22 22 19 15 16 18 17 19 23 24 24 27 28 26 27 26 25 25 24 26 27 29 29 29 30 30 34 37 36 37 32 27 30 30 27 25 24 23 23 24 22 17 15 16 16 19 23 24 21 22 21 19 19 19 20 21 21 22 22 21 20 19 18 17
33 32 31 30 29 30 32 32 32 31 30 30 31 30 29 28 26 25 24 25 25 24 23 23 22 21 16 12 13 17 19 19 22 25 24 26 29 29 28 28 28 27 28 29 29 31 32 31 33 35 39 42 41 43 39 32 33 33 29 27 27 25 26 27 25 20 17 18 19 21 25 25 23 22 20 21 22 21 21 23 22 23 23 22 22 21 19 18
35 34 33 32 31 31 32 33 32 32 31 30 31 31 30 29 28 26 24 23 24 25 25 25 24 22 19 16 14 15 18 21 23 26 27 28 30 31 31 31 31 31 31 32 32 32 33 35 40 43 45 45 43 42 40 37 34 31 29 29 30 29 29 30 27 22 18 18 22 23 24 25 23 22 20 20 24 25 24 23 23 23 23 23 23 22 20 18
36 36 35 34 33 33 33 34 33 32 31 30 30 30 30 31 30 28 25 22 22 25 27 25 27 26 22 22 22 19 18 20 24 28 30 30 31 34 35 35 35 36 35 32 31 31 34 40 46 46 44 42 40 39 38 36 34 32 29 27 29 31 33 33 29 25 18 17 21 22 24 26 24 22 20 20 24 27 27 25 23 23 22 22 22 22 21 19
37 37 36 34 33 33 34 34 33 33 32 30 29 29 30 30 30 30 30 25 19 22 26 25 27 26 22 22 23 24 23 22 25 31 33 33 35 37 37 38 39 39 36 32 32 34 37 46 48 44 40 38 38 37 37 35 33 34 31 29 30 33 34 31 30 27 19 18 21 20 22 23 21 20 20 21 23 24 26 27 26 24 23 22 21 21 22 22
37 37 36 34 33 32 33 33 33 32 31 29 27 27 29 29 30 30 32 32 22 19 22 24 27 25 21 22 23 27 29 26 27 32 35 37 38 38 39 40 40 39 37 37 38 39 40 44 46 42 38 37 38 37 36 34 33 35 34 34 37 38 34 26 23 23 18 17 20 21 24 25 22 20 21 22 22 22 24 28 30 29 26 23 22 21 22 23
36 36 37 35 32 31 31 31 31 31 28 26 25 25 26 27 28 28 30 34 31 23 20 22 27 26 22 23 25 28 29 28 30 32 35 39 40 40 41 40 40 40 40 40 40 41 41 39 37 38 39 38 37 38 37 34 33 36 38 40 41 41 39 30 24 23 17 14 16 16 20 27 29 27 25 23 22 23 25 28 31 32 29 25 24 24 23 23
37 36 36 35 32 30 30 29 28 28 27 24 23 22 24 25 25 27 27 30 32 26 22 22 22 23 25 28 29 27 29 31 31 32 36 39 39 41 43 41 41 42 42 41 39 41 43 39 30 29 38 40 38 39 41 38 33 34 40 43 41 39 38 35 29 25 19 16 17 14 11 18 28 30 28 25 23 22 24 27 31 31 30 29 27 25 23 24
38 37 36 35 34 30 28 27 25 26 25 22 21 20 21 23 22 23 24 25 26 19 16 18 14 17 23 27 29 27 29 31 30 34 38 37 37 39 42 43 43 43 42 40 39 40 42 41 34 25 28 37 41 40 41 39 31 30 39 41 38 36 34 32 29 21 14 13 17 16 10 12 20 26 26 24 24 23 22 26 29 30 31 32 30 27 23 23
38 38 36 35 35 32 29 27 25 25 23 20 20 18 18 18 17 18 18 16 14 9 11 13 9 12 16 21 25 25 27 27 30 37 40 38 38 39 40 44 44 43 43 40 38 41 41 40 40 34 25 28 39 43 42 40 31 29 38 38 34 33 33 34 30 22 17 17 20 20 16 15 22 29 28 24 23 23 23 25 26 27 30 32 33 31 27 23
37 38 37 34 34 33 30 28 26 25 23 18 17 17 15 14 12 11 8 6 4 1 5 6 7 10 12 15 18 23 26 23 26 35 39 40 40 40 42 44 43 42 44 43 42 43 42 39 40 41 34 28 35 41 40 40 35 31 36 35 31 29 28 30 26 22 20 20 23 25 21 16 22 33 33 27 27 27 27 26 24 24 26 28 30 33 32 27
36 37 37 33 32 31 30 29 27 25 23 18 15 15 13 11 9 4 1 2 3 3 5 5 7 7 9 12 12 19 27 24 21 26 36 43 42 42 43 42 42 41 41 43 44 43 40 37 35 37 40 36 35 35 34 37 37 34 33 28 24 22 21 21 19 18 17 17 22 25 23 17 18 30 35 31 32 33 32 28 24 22 22 24 27 29 32 30
34 35 36 33 30 29 28 28 27 25 23 18 14 14 12 10 9 5 4 6 4 3 7 10 10 7 6 9 10 16 25 26 19 18 32 44 43 42 42 40 40 38 38 41 43 44 40 35 32 33 37 37 35 32 29 32 35 35 31 21 14 15 17 16 17 16 13 16 23 25 23 17 16 27 37 40 40 36 33 29 25 22 21 21 22 23 26 29
33 34 35 35 32 30 27 26 25 24 22 18 14 12 12 11 11 7 4 7 6 4 6 8 11 10 6 6 7 12 20 24 20 16 28 42 43 43 42 40 38 33 33 39 41 43 42 34 31 32 32 31 34 35 31 27 28 30 29 21 14 12 13 13 14 14 11 11 17 22 23 19 18 22 28 37 41 36 33 30 26 23 21 20 20 21 23 26
33 33 35 35 34 32 30 26 24 22 20 17 13 12 12 10 12 15 9 3 4 6 7 8 11 12 8 6 5 9 15 22 22 16 23 39 44 46 46 45 43 34 28 36 40 39 43 41 35 31 30 29 30 34 36 32 27 26 27 25 18 9 8 11 9 10 12 9 6 11 17 21 27 32 32 35 37 36 34 31 27 24 21 20 20 20 22 24
33 33 33 34 34 32 30 28 24 22 20 15 12 13 15 9 8 16 16 9 6 6 7 9 11 12 8 6 5 7 11 18 22 16 16 31 42 46 46 46 46 39 28 31 36 32 31 38 40 34 29 31 31 31 34 36 34 31 28 28 22 11 6 10 8 5 9 9 7 11 15 17 25 35 41 42 40 39 38 32 29 26 23 21 19 18 20 21
33 33 32 32 32 31 29 27 24 21 18 14 11 12 16 12 6 7 12 16 17 15 13 11 11 12 8 6 6 7 9 13 20 20 15 23 38 43 45 45 44 40 32 28 31 31 22 23 38 42 36 34 34 33 32 32 34 35 31 28 25 19 11 7 7 6 5 4 11 16 15 12 15 24 30 32 32 34 36 36 32 28 24 22 19 18 19 20
31 32 32 31 30 29 27 25 23 20 17 13 11 12 16 14 10 7 8 13 17 20 19 17 15 13 10 9 8 7 9 11 16 21 18 20 32 40 43 44 41 39 36 28 26 31 25 22 32 38 38 38 33 31 32 27 26 31 33 29 27 29 23 8 4 8 4 1 8 16 18 17 20 25 26 24 25 26 28 31 32 31 27 23 22 20 20 21
28 29 30 29 28 27 25 23 22 20 17 14 13 14 18 17 14 12 11 12 13 16 16 14 15 15 13 11 11 10 10 10 11 16 19 17 24 34 39 41 41 39 38 31 25 26 22 24 32 28 29 36 34 30 32 28 24 26 32 34 32 33 29 15 6 6 5 5 6 15 22 25 24 28 31 30 30 29 28 28 28 31 31 28 26 23 21 23
27 27 27 28 27 26 24 22 21 20 17 15 13 14 17 19 19 18 16 15 12 12 12 8 7 9 8 7 10 12 11 10 9 11 18 18 18 28 35 37 38 39 39 36 33 29 20 20 31 31 25 28 31 30 28 28 28 26 29 36 32 25 24 20 10 5 7 7 6 13 20 22 18 20 28 32 33 34 36 34 31 30 30 30 29 25 23 23
29 27 26 25 25 24 23 21 20 19 17 15 13 12 14 17 21 22 22 21 17 14 12 8 6 6 5 6 5 9 8 8 9 10 16 18 15 20 28 32 35 38 41 42 37 32 24 17 20 26 27 25 27 30 26 27 31 29 28 32 26 18 19 24 15 6 8 7 4 9 15 20 23 21 21 27 29 31 34 35 36 34 32 31 29 26 24 23
30 28 25 23 22 22 21 20 19 18 17 14 10 9 12 16 18 20 22 23 21 20 15 9 8 9 8 8 8 6 4 3 6 9 11 12 12 15 21 27 32 36 40 44 41 32 26 19 14 16 21 23 26 31 30 30 32 33 30 27 25 20 18 24 22 10 7 6 4 5 7 17 30 33 28 27 25 23 24 26 31 34 35 34 31 28 25 24
30 28 25 22 21 20 20 18 17 17 14 11 9 9 11 15 16 17 19 20 19 18 16 13 14 14 14 13 12 11 9 6 5 5 5 6 7 11 17 21 24 30 37 42 42 36 27 22 16 13 17 22 28 33 34 35 37 38 34 26 26 25 17 18 25 22 12 6 4 6 6 11 21 27 29 30 28 25 22 22 24 29 32 34 34 32 29 27
29 28 25 22 20 18 17 16 14 13 11 9 9 10 11 13 15 15 15 17 17 16 16 17 18 17 18 17 15 15 16 14 11 8 6 5 5 8 13 17 17 20 28 35 37 36 32 26 20 16 19 25 28 28 29 31 36 40 38 32 29 27 20 12 16 25 24 14 7 6 9 10 13 15 16 18 22 25 25 24 25 25 27 30 32 34 33 31
28 27 25 23 20 16 14 13 10 10 10 9 9 10 11 11 12 13 12 12 14 14 14 17 18 17 16 15 15 15 14 13 11 9 8 8 8 9 9 12 14 13 17 27 33 36 35 29 23 19 19 21 22 22 21 24 31 37 39 39 33 29 28 21 12 16 24 21 14 8 10 16 19 18 13 10 10 14 17 21 23 23 23 25 27 29 31 31
28 25 24 23 20 16 12 8 6 7 7 8 8 9 10 11 11 12 11 11 10 10 10 11 12 13 14 14 12 11 10 9 7 6 8 8 9 11 9 9 11 10 12 18 24 30 31 27 24 20 18 16 16 18 21 24 31 36 38 41 39 35 35 32 22 16 17 19 17 10 10 14 15 14 14 13 10 8 10 15 19 20 20 20 21 22 23 26
28 24 21 21 20 15 10 8 9 9 8 8 8 8 8 10 12 11 10 10 10 10 10 9 10 12 13 12 11 10 9 9 8 8 11 12 10 11 11 10 9 8 9 12 15 20 20 20 23 19 13 14 15 16 22 28 33 36 36 39 42 41 39 36 30 22 18 21 23 16 11 10 6 6 9 12 13 13 12 12 16 18 20 21 21 21 22 22
28 25 21 20 18 13 8 10 14 14 13 12 9 8 8 8 9 10 10 11 10 9 9 10 12 12 10 8 10 10 9 8 8 9 11 12 12 12 11 11 10 8 7 8 11 13 12 14 21 18 10 11 12 11 18 26 28 31 36 40 42 43 41 39 35 27 20 22 28 27 18 11 11 11 9 8 10 12 13 12 13 14 18 22 23 24 24 22
27 26 24 21 15 9 9 13 13 13 15 15 11 9 10 9 8 9 10 12 12 10 9 11 13 13 11 10 10 11 11 9 9 10 11 11 11 10 10 11 11 9 9 8 7 9 9 9 15 17 13 10 9 9 15 23 24 25 31 37 42 43 43 42 40 34 27 22 28 37 30 19 18 18 15 13 11 11 11 10 10 10 13 18 21 24 26 23
25 24 24 22 15 10 11 13 11 11 13 15 13 10 10 11 11 9 9 11 11 9 9 10 11 12 11 11 11 12 13 11 9 10 13 15 13 11 9 8 9 9 9 9 7 7 7 5 8 12 12 13 15 14 15 20 24 24 27 32 37 41 43 45 42 39 34 24 27 40 38 30 28 23 18 17 15 13 13 12 12 11 11 14 16 18 22 23
24 21 21 20 16 14 14 13 11 12 13 13 13 11 11 12 13 12 11 10 9 8 8 8 8 10 9 9 9 10 10 11 10 11 13 16 18 17 14 11 10 9 8 8 8 7 5 4 6 10 11 12 16 19 19 18 21 24 28 32 35 36 41 45 46 45 42 35 35 39 34 34 39 35 29 25 18 15 15 15 16 15 14 14 14 14 17 18
23 22 20 17 16 16 16 14 12 13 12 13 12 11 12 12 12 14 14 13 10 8 8 8 8 10 11 11 11 10 8 7 7 9 11 13 15 17 17 16 13 12 10 8 8 8 5 4 6 9 12 10 11 17 22 22 22 25 28 32 36 37 36 37 41 47 49 46 46 42 34 36 42 42 40 35 28 24 24 22 18 16 16 18 18 18 17 16
22 22 21 18 17 17 16 15 15 14 13 12 11 11 12 12 12 13 13 15 14 9 8 10 9 8 10 11 13 13 12 9 8 9 9 10 11 12 14 16 14 13 12 9 8 8 5 5 7 9 11 10 9 11 18 23 26 28 30 31 34 36 35 32 33 38 44 49 50 46 43 46 47 44 43 41 37 34 30 27 23 19 19 20 19 19 19 18
20 19 19 19 19 18 17 17 19 17 14 11 11 12 13 12 12 14 13 13 12 8 7 10 10 7 7 7 9 12 13 14 16 16 12 10 11 11 10 12 13 14 13 10 8 8 6 7 8 8 9 10 9 8 15 22 24 29 35 37 35 33 34 34 32 33 37 43 46 46 49 52 47 42 41 41 40 38 32 29 29 27 24 22 20 20 22 22
20 18 17 18 20 20 20 20 19 17 13 13 14 14 13 11 11 14 14 11 8 7 9 12 12 10 11 10 9 10 12 14 17 20 19 17 16 14 14 14 14 15 16 13 11 10 8 8 7 6 7 9 9 8 11 14 16 23 32 39 41 41 38 35 34 34 35 38 42 46 49 48 42 38 39 39 39 40 39 37 36 35 32 29 27 24 24 24
Wind_Direction
300 299 298 297 297 297 298 298 299 300 301 302 302 302 301 299 295 289 282 277 271 266 263 261 262 265 267 268 269 271 272 273 272 269 264 236 223 218 212 213 215 214 217 221 222 223 222 223 226 228 231 236 237 237 244 250 254 260 263 271 275 230 186 133 109 62 28 8 345 306 283 267 283 338 350 3 4 328 309 318 312 192 175 165 166 173 192 205
297 297 296 295 294 293 293 293 294 295 296 298 298 299 299 299 297 294 290 284 277 271 264 261 259 260 263 265 266 266 268 269 267 268 263 242 230 224 218 216 216 214 215 219 219 221 223 224 227 228 231 235 235 236 240 248 252 256 266 269 253 200 160 136 111 54 24 20 11 349 309 278 281 288 297 326 346 345 318 311 295 213 199 185 184 183 182 194
298 297 296 295 293 292 290 290 289 290 292 293 295 295 296 296 296 296 295 291 286 278 271 264 259 258 259 262 264 265 266 266 266 267 259 246 236 228 223 222 222 218 217 219 219 219 220 220 225 227 229 232 233 235 240 245 250 255 261 258 231 191 165 148 129 43 19 16 11 3 333 294 286 275 276 294 315 347 347 312 306 223 213 191 194 199 180 184
299 298 297 295 294 293 291 290 289 288 288 289 290 291 291 292 293 295 296 296 294 287 280 270 263 259 258 259 261 264 266 267 268 265 258 247 233 225 221 219 220 219 218 218 218 217 215 214 216 221 224 228 229 232 240 243 248 252 249 245 210 181 168 158 110 40 12 4 4 5 352 326 300 275 273 281 296 352 19 33 99 78 170 188 193 204 182 174
301 300 298 297 295 294 293 292 290 289 289 289 288 287 287 287 290 292 295 297 297 296 289 279 270 262 260 259 259 262 265 269 270 260 253 245 229 220 218 216 214 214 215 216 216 214 212 211 211 214 218 223 225 229 238 241 247 249 242 221 183 172 167 170 77 22 357 354 356 353 351 342 316 284 278 281 296 13 31 66 98 91 107 150 178 209 186 170
302 301 300 299 298 296 295 294 292 292 291 290 289 286 284 284 286 289 293 295 296 298 295 286 275 268 264 260 258 258 256 258 266 251 241 237 227 218 215 215 211 211 213 214 215 214 212 210 210 212 216 220 224 229 235 237 243 248 241 207 183 178 173 173 205 344 337 336 335 333 333 330 322 307 292 282 253 136 9 62 98 95 102 143 172 194 193 171
303 302 301 300 299 298 297 295 294 293 293 292 290 287 284 284 284 287 291 293 293 294 293 287 278 271 268 263 259 256 254 251 242 238 237 232 229 222 215 214 212 211 213 214 214 213 212 213 212 211 214 220 224 230 234 232 239 246 235 205 198 200 183 185 247 288 305 308 312 313 315 318 319 316 304 284 249 212 234 285 114 98 98 131 160 170 182 168
306 303 302 301 300 299 298 297 295 294 293 293 290 287 286 285 286 288 289 289 288 286 286 282 278 273 269 267 262 257 255 238 224 233 237 230 226 227 219 214 212 212 214 216 217 215 214 214 214 212 213 219 225 231 234 232 238 243 231 214 214 216 207 217 246 266 281 287 292 292 301 317 318 314 299 267 260 242 224 247 253 171 112 122 154 166 173 169
309 307 305 303 302 301 299 298 296 295 295 292 290 289 288 288 289 290 288 284 280 279 278 277 277 275 271 270 267 260 220 197 215 227 229 223 224 227 220 215 213 213 214 215 217 217 216 215 215 215 216 219 225 230 233 233 236 242 240 237 233 232 232 234 238 250 270 278 283 285 299 315 316 310 284 248 260 250 232 242 247 239 199 139 162 171 174 173
311 309 308 307 305 304 302 300 298 297 295 292 291 290 290 291 291 288 286 282 277 275 274 273 273 272 273 272 267 257 196 210 221 228 227 223 225 225 216 214 214 213 214 213 214 216 215 216 215 217 218 220 225 229 231 232 235 240 246 247 243 242 240 240 240 242 263 274 278 284 298 305 303 298 275 248 251 243 232 238 243 246 237 203 178 173 175 177
312 310 309 308 306 305 304 301 299 298 296 293 291 291 291 292 289 287 285 282 278 275 273 271 269 269 270 273 271 256 222 218 220 228 229 224 224 223 213 211 212 211 213 213 214 215 214 214 215 217 220 221 224 229 233 234 235 236 243 247 247 250 245 244 245 241 259 269 272 284 293 293 287 281 265 244 245 241 233 236 241 243 236 227 198 179 180 180
315 313 311 309 307 305 303 300 300 299 297 294 292 291 290 289 287 286 284 282 280 277 275 270 268 267 266 273 271 240 229 217 218 224 222 219 220 219 211 207 209 209 210 212 213 213 211 211 212 214 217 221 224 229 234 235 234 233 239 245 247 251 249 246 246 246 260 264 268 284 287 283 275 265 256 243 246 243 234 235 240 240 234 232 213 192 188 185
319 317 315 314 311 308 304 301 301 299 297 295 293 292 289 287 285 284 283 282 280 277 274 270 268 266 267 270 197 218 227 211 214 219 214 212 214 214 209 204 205 203 201 205 209 209 208 209 210 213 215 221 225 227 232 237 237 234 236 242 245 250 249 247 248 251 261 265 268 277 277 276 271 257 249 241 245 246 237 233 237 239 233 232 229 211 196 193
319 319 318 317 314 311 307 304 304 301 298 296 294 292 290 288 284 282 280 279 278 277 274 272 269 264 265 248 188 217 228 217 215 213 211 210 209 209 206 202 201 197 193 191 196 202 204 207 208 211 216 220 223 226 229 235 239 236 236 240 244 249 248 244 247 252 258 264 266 270 270 273 275 266 253 245 246 247 242 233 233 240 236 232 236 229 209 202
319 318 318 317 315 312 309 307 307 305 302 299 295 292 290 288 285 282 279 277 275 274 274 272 270 267 263 243 209 219 223 227 222 204 207 208 205 205 201 201 200 197 194 188 188 193 197 204 207 210 215 218 221 225 227 230 233 231 231 237 241 246 248 244 245 249 255 262 263 265 268 274 281 279 262 249 248 246 243 237 233 240 241 235 236 237 226 208
318 317 317 315 313 311 309 308 307 307 305 303 299 296 292 288 285 282 279 276 273 271 272 270 269 269 266 251 229 226 223 226 221 204 206 206 202 201 198 198 198 196 194 191 191 192 194 199 206 210 214 217 220 224 227 230 230 225 223 227 234 240 246 248 248 248 253 259 262 262 268 278 288 292 275 253 246 245 242 238 234 238 242 240 236 239 236 216
318 318 316 314 312 309 307 306 306 306 305 304 303 300 295 291 286 282 279 276 272 270 268 268 268 267 266 259 241 234 227 224 222 214 209 205 200 199 199 198 197 197 193 194 195 196 197 200 205 208 212 215 218 220 224 229 228 222 222 225 227 233 240 245 246 244 244 248 257 265 269 276 288 295 286 261 247 244 243 239 236 236 239 242 239 240 241 229
318 318 317 315 312 310 307 305 304 304 304 303 302 300 298 295 289 283 278 274 271 268 266 264 263 263 265 260 244 237 229 222 222 220 211 205 201 199 201 200 199 199 197 198 199 199 202 206 209 210 213 214 215 216 216 222 224 220 220 225 229 231 236 241 242 241 244 250 259 267 270 276 289 297 289 269 251 245 246 245 240 237 239 242 240 239 242 237
317 317 316 315 314 312 309 306 305 303 303 302 301 301 300 298 294 287 280 274 270 266 264 260 256 255 256 253 240 233 229 222 219 218 212 206 202 200 200 200 200 202 202 203 203 204 206 209 212 213 215 215 215 216 217 221 226 225 224 228 233 236 238 240 242 246 253 260 263 267 273 280 288 293 288 272 257 248 247 248 244 240 240 241 240 237 238 239
317 315 315 314 315 314 311 309 308 305 303 302 301 301 300 298 296 292 286 279 273 266 260 258 257 253 248 244 237 233 232 225 217 212 208 205 202 200 200 200 201 203 207 208 208 209 209 214 217 217 216 216 217 219 222 226 229 230 230 231 236 240 242 241 242 248 255 262 264 267 273 277 281 289 290 276 261 251 246 247 247 244 241 241 240 236 234 235
316 315 314 314 314 314 312 312 311 309 306 304 302 301 299 299 297 295 290 282 277 272 263 256 255 252 246 242 237 235 234 225 216 209 206 204 201 200 201 202 203 205 208 209 213 215 214 219 223 222 221 220 221 223 225 228 230 232 232 232 236 240 243 243 242 244 250 260 265 267 270 273 275 284 288 276 261 253 249 248 249 247 245 242 240 236 232 230
316 314 313 314 315 314 313 313 313 311 309 308 306 304 301 300 299 299 295 286 273 269 269 261 256 253 245 240 236 231 228 223 217 209 206 204 201 201 202 204 207 209 207 206 211 216 219 225 226 225 224 223 224 226 227 229 230 232 232 233 236 238 242 245 246 246 247 255 262 265 268 271 273 277 280 274 265 260 256 254 253 253 252 247 241 236 230 227
316 314 313 313 315 314 313 314 315 312 312 312 309 305 303 301 301 302 301 297 279 261 269 268 261 257 244 234 229 224 224 222 215 208 206 207 205 203 204 205 208 210 209 207 209 213 219 228 229 225 224 224 224 226 227 228 229 231 231 232 235 236 239 242 246 247 245 251 258 263 266 267 266 267 269 269 266 263 259 256 255 254 253 251 246 240 233 227
317 316 314 314 315 315 314 315 317 314 314 315 310 306 302 300 302 302 303 303 292 278 277 269 259 257 250 239 228 221 224 222 215 209 209 210 208 206 207 209 210 210 213 213 213 214 219 227 230 225 223 223 223 224 225 224 226 230 231 231 234 236 237 239 244 245 246 249 253 263 274 268 261 260 262 265 266 260 254 253 253 251 248 248 247 241 236 230
319 317 315 316 316 316 315 318 321 317 316 316 309 304 298 297 301 302 305 306 301 296 287 272 259 250 245 241 232 220 220 222 216 210 212 213 211 211 210 211 212 213 215 216 216 219 223 227 229 224 222 222 222 224 224 223 223 229 233 233 234 238 239 242 248 253 259 261 253 256 276 270 261 257 257 259 262 260 255 252 251 250 246 244 244 241 236 232
321 319 318 319 318 317 317 317 319 316 318 317 307 300 295 296 299 303 310 309 307 308 287 274 259 241 237 236 233 221 217 222 216 208 211 215 215 215 214 212 213 217 218 216 217 223 227 228 228 225 223 222 222 224 225 223 221 228 234 234 234 238 241 243 248 252 257 259 252 246 250 272 269 258 253 253 257 259 258 255 253 251 246 244 245 243 239 235
322 320 320 322 320 320 319 317 318 319 322 319 305 296 291 293 297 306 315 308 306 308 271 261 235 222 228 229 227 217 213 218 216 212 210 214 216 214 215 216 214 216 218 214 216 225 228 225 225 225 225 224 223 224 225 222 220 229 236 235 235 238 240 243 246 249 251 259 258 247 243 269 273 259 251 248 252 256 255 254 254 250 247 246 246 245 242 240
323 320 320 323 322 323 324 320 319 321 324 320 301 289 284 284 288 306 324 309 300 293 253 246 206 208 217 221 220 210 208 210 215 215 209 212 217 213 213 218 218 219 217 211 214 226 229 224 225 225 222 223 226 226 227 222 220 229 236 237 237 238 242 245 246 249 254 261 260 249 241 254 266 259 253 248 247 250 249 249 252 250 248 246 247 248 246 243
323 320 320 323 324 325 328 325 322 320 322 321 302 282 270 264 265 275 330 269 260 227 235 231 212 217 216 215 211 204 205 206 212 213 204 206 214 214 214 217 218 221 221 216 218 227 231 229 232 230 223 227 232 231 230 226 222 227 234 238 239 238 240 241 240 246 252 251 249 245 238 241 260 257 252 249 245 244 244 247 252 254 252 248 247 249 248 245
324 321 320 322 323 325 328 327 325 322 318 317 303 277 255 242 235 217 210 229 234 221 227 223 217 222 220 209 202 202 204 204 209 209 199 202 208 212 215 218 218 219 222 221 222 226 231 233 234 230 229 236 239 234 230 229 226 229 231 227 226 228 228 233 236 240 248 248 243 241 235 237 261 260 250 247 244 241 243 246 251 257 257 252 246 244 246 244
325 322 320 321 323 324 325 325 325 323 318 315 300 267 243 229 211 198 217 230 233 229 206 207 214 218 219 204 198 205 204 202 204 200 196 198 202 205 208 212 212 213 221 223 223 226 228 232 232 230 233 238 238 235 232 229 224 226 227 216 206 213 217 227 233 229 236 248 240 237 236 234 244 255 252 250 246 243 244 245 247 256 259 254 248 242 242 241
324 321 320 320 321 323 325 325 324 322 320 317 298 255 226 216 213 214 218 222 255 246 206 195 203 205 207 204 205 208 205 205 203 195 196 198 200 204 205 207 204 200 209 217 220 225 225 228 232 235 236 232 229 230 230 228 220 216 217 209 202 200 206 219 220 221 236 245 228 229 234 233 239 248 253 254 252 246 243 243 244 252 258 256 251 247 245 242
324 321 320 320 321 324 325 324 325 322 321 319 295 247 217 209 228 226 225 234 262 247 211 204 200 195 201 214 221 212 207 210 207 201 201 200 201 205 206 209 208 202 201 208 212 217 222 227 230 231 233 230 224 218 217 220 216 210 205 199 197 191 192 216 209 219 248 238 212 223 235 240 246 254 256 256 256 253 246 243 244 249 255 257 255 254 252 248
325 321 321 322 322 323 324 324 323 320 320 317 289 243 216 214 234 231 231 241 251 250 243 242 220 201 211 244 252 233 212 212 210 207 207 201 201 203 205 209 211 208 207 207 209 210 209 222 226 224 224 225 224 220 219 220 217 214 208 201 204 205 202 209 204 217 261 211 186 204 225 234 236 250 257 256 258 258 252 245 243 246 251 254 255 255 253 251
326 323 322 323 322 323 324 323 322 319 316 310 285 241 221 224 239 258 266 254 257 259 252 253 248 237 249 262 261 246 216 210 211 209 208 204 202 204 205 207 209 209 209 209 211 212 212 222 227 224 224 225 224 223 226 224 219 218 213 209 215 214 210 217 229 220 245 351 178 193 218 235 237 246 254 255 257 257 255 250 244 244 247 251 253 251 250 252
325 323 321 320 321 323 324 321 319 317 311 305 291 253 234 235 244 257 267 262 275 286 271 256 256 259 268 259 242 240 229 216 214 209 206 206 207 208 207 208 209 209 210 212 213 212 210 224 230 225 223 227 226 225 224 217 212 212 208 211 220 218 214 221 245 222 224 264 212 200 228 245 250 256 255 253 256 256 254 252 246 244 246 248 253 252 248 250
325 323 321 321 322 321 320 319 315 313 309 302 293 272 252 244 244 251 261 264 276 301 303 288 266 261 274 263 227 221 223 218 212 202 197 196 205 210 208 208 210 209 210 215 220 221 215 224 232 228 223 226 225 226 228 221 216 209 205 211 215 216 218 224 237 237 222 246 228 208 232 244 243 253 253 249 251 254 255 254 248 245 245 246 251 251 247 251
330 328 324 324 323 319 318 318 313 310 310 305 295 283 269 255 248 250 260 266 266 276 294 301 283 266 285 305 248 208 203 205 196 179 181 185 194 205 205 206 209 209 210 213 218 224 223 228 238 232 229 229 222 218 219 222 222 218 218 219 210 200 209 211 217 237 221 232 249 215 232 242 233 232 242 245 247 250 254 255 251 246 243 245 250 249 249 255
334 332 329 329 326 320 318 316 312 310 310 310 301 281 273 268 259 255 260 266 266 268 276 278 271 272 284 300 288 254 235 211 191 168 166 180 190 196 197 200 205 208 211 213 215 218 220 225 237 231 227 227 217 208 204 208 216 220 226 227 214 209 207 202 207 217 213 224 248 224 228 244 241 237 236 240 244 247 252 253 253 248 243 243 246 249 252 256
335 333 334 334 330 324 319 315 313 314 315 312 303 287 284 283 277 270 270 272 271 267 268 267 265 274 285 289 285 277 280 275 228 177 162 182 185 188 195 196 198 204 210 212 213 217 218 222 226 218 213 213 209 205 204 206 209 212 216 214 209 211 209 206 215 217 215 224 234 238 247 247 249 248 244 242 241 242 246 248 252 253 248 245 245 248 252 255
338 337 337 337 337 330 322 321 319 317 318 317 309 301 296 295 293 289 284 282 280 272 268 268 267 275 288 290 284 279 281 280 270 254 252 246 201 183 195 198 193 197 206 209 211 215 216 216 217 210 205 207 209 213 216 218 218 216 214 209 204 205 197 197 220 217 216 225 216 227 265 265 255 252 249 247 244 241 243 245 250 253 251 249 247 246 249 252
343 343 341 341 342 336 326 328 328 320 321 322 318 315 313 311 309 304 297 294 288 276 266 265 267 274 282 283 280 280 282 284 279 270 266 255 224 200 190 193 186 174 188 199 205 211 214 213 214 215 215 215 217 222 225 229 229 226 224 218 210 205 202 203 217 209 208 221 226 234 269 267 260 255 246 243 247 246 244 241 242 247 250 251 249 248 249 251
346 348 345 343 345 342 331 333 339 332 334 333 322 318 314 306 302 300 294 292 287 270 257 254 254 254 258 264 269 270 268 267 265 249 244 244 227 214 204 191 181 168 173 185 195 206 212 211 211 216 225 225 223 223 225 228 226 224 226 223 216 211 210 214 225 221 208 212 214 221 252 254 259 261 246 238 238 234 232 231 233 237 239 240 240 241 242 246
346 348 349 347 346 341 330 339 356 354 346 342 331 317 306 294 292 294 284 275 275 268 257 247 241 242 246 254 259 258 254 251 245 231 230 237 231 220 221 212 196 188 183 180 188 198 205 207 206 209 220 221 220 223 224 226 223 219 220 223 223 221 217 217 223 228 228 218 208 213 237 235 229 244 243 246 241 228 224 233 236 233 228 227 229 230 233 241
345 345 349 353 349 345 341 344 352 348 338 339 340 323 314 302 290 289 280 272 273 270 255 240 242 250 251 244 242 246 246 234 231 228 224 233 235 226 227 225 218 217 206 194 194 193 195 198 198 202 214 212 210 214 216 218 220 220 221 223 225 223 218 217 220 222 228 223 214 217 227 231 232 234 235 244 244 238 239 246 249 240 228 225 225 225 230 242
346 345 347 354 357 359 354 342 338 338 334 337 345 336 325 317 300 289 282 276 276 273 256 239 239 247 252 245 234 236 240 227 226 233 227 231 238 228 224 224 221 224 223 219 206 195 199 196 195 208 227 227 212 196 200 211 215 218 222 224 225 225 221 220 220 221 222 221 224 228 230 237 244 241 238 239 239 246 250 249 255 254 237 228 225 225 232 246
347 348 346 350 354 353 347 339 334 339 339 338 344 341 330 326 320 311 292 280 284 288 267 245 240 241 242 246 242 241 243 234 229 240 240 241 246 240 235 232 224 224 227 231 230 214 210 206 203 217 232 236 226 204 194 210 215 214 218 223 225 226 225 220 219 224 223 219 233 238 234 236 241 240 243 245 239 243 249 247 251 259 255 242 235 234 240 251
346 348 348 346 342 338 340 340 336 340 342 341 340 335 332 332 326 319 309 296 297 302 282 255 252 254 242 234 238 243 246 241 238 244 247 250 253 252 253 254 250 248 246 243 244 240 235 238 235 234 239 241 232 217 210 219 222 217 217 220 223 226 228 225 223 227 228 226 238 244 240 240 243 244 245 245 239 238 237 238 248 256 251 244 247 253 254 256
343 344 347 343 335 334 338 338 336 339 341 337 333 329 328 328 320 315 314 308 308 304 285 274 272 273 266 257 255 255 254 255 248 239 242 252 258 259 260 260 262 262 258 255 257 257 252 249 254 255 255 253 240 227 227 233 237 230 221 219 221 223 228 230 231 233 234 235 241 246 248 250 250 250 250 248 246 244 242 245 254 256 245 242 251 256 254 258
344 341 341 338 335 336 336 333 333 337 336 330 328 324 320 319 315 312 309 307 308 299 273 275 277 272 272 269 264 260 259 264 265 254 252 255 255 261 265 261 260 259 252 252 261 261 253 250 264 281 279 263 246 235 234 237 243 241 232 224 222 224 228 230 233 235 235 237 242 244 247 251 253 254 255 255 253 252 253 254 251 242 236 240 244 243 244 254
344 339 336 331 330 334 333 329 332 337 335 332 331 322 317 320 318 312 309 305 301 286 270 291 300 288 278 275 268 263 260 257 259 261 266 265 255 253 257 256 259 261 255 251 257 258 259 267 278 304 301 269 248 239 236 238 246 250 242 232 226 228 231 231 232 233 233 237 242 241 242 247 252 254 256 257 257 256 254 249 244 240 239 243 249 248 250 255
341 337 333 327 323 326 329 329 332 336 333 331 329 319 316 324 324 318 317 308 291 279 293 310 316 305 295 294 287 276 263 253 254 258 260 262 261 257 256 257 260 265 266 264 266 264 262 273 290 309 299 266 248 249 251 248 252 254 248 240 235 233 234 235 236 236 234 237 241 241 244 250 255 257 257 258 258 257 253 248 248 250 250 254 261 263 264 262
Height
3150 3149 3148 3148 3147 3146 3145 3145 3144 3143 3143 3142 3141 3141 3140 3140 3139 3139 3139 3139 3139 3139 3140 3140 3141 3140 3141 3141 3142 3142 3142 3142 3141 3141 3142 3142 3141 3141 3143 3144 3146 3148 3151 3153 3156 3158 3161 3163 3164 3166 3167 3167 3168 3169 3169 3168 3169 3170 3170 3171 3172 3172 3173 3173 3173 3174 3174 3174 3173 3173 3174 3175 3175 3175 3175 3175 3174 3174 3174 3175 3175 3176 3176 3177 3177 3178 3179 3180
3149 3148 3147 3146 3145 3144 3143 3143 3142 3141 3141 3140 3139 3139 3138 3137 3137 3137 3136 3136 3137 3137 3137 3138 3138 3138 3138 3138 3139 3139 3139 3140 3139 3140 3141 3140 3140 3141 3142 3143 3144 3147 3149 3151 3154 3157 3160 3162 3163 3165 3166 3166 3167 3168 3168 3167 3168 3169 3169 3170 3171 3172 3172 3172 3173 3173 3173 3173 3173 3173 3173 3174 3175 3175 3175 3175 3175 3174 3174 3175 3175 3176 3176 3177 3177 3178 3179 3180
3147 3146 3145 3144 3143 3142 3141 3141 3140 3139 3139 3138 3137 3137 3136 3135 3135 3134 3134 3134 3134 3134 3135 3135 3135 3135 3136 3136 3136 3137 3137 3137 3138 3138 3138 3138 3139 3140 3141 3142 3144 3147 3149 3151 3154 3156 3158 3161 3162 3163 3164 3165 3166 3167 3167 3167 3168 3169 3169 3169 3171 3172 3172 3172 3172 3172 3172 3172 3172 3172 3173 3173 3174 3174 3175 3175 3175 3175 3174 3175 3175 3176 3176 3176 3177 3178 3178 3179
3145 3144 3143 3142 3141 3141 3140 3139 3138 3137 3136 3136 3135 3135 3134 3133 3133 3132 3132 3132 3132 3132 3132 3132 3133 3133 3133 3133 3134 3134 3135 3135 3136 3136 3136 3137 3137 3138 3139 3140 3143 3145 3148 3150 3151 3153 3156 3158 3160 3161 3163 3163 3165 3165 3165 3166 3167 3168 3168 3169 3170 3171 3171 3171 3172 3172 3172 3172 3172 3172 3172 3173 3173 3174 3174 3175 3175 3175 3175 3175 3175 3176 3176 3176 3177 3177 3178 3179
3143 3142 3141 3140 3140 3139 3138 3137 3136 3135 3134 3134 3133 3132 3131 3131 3131 3130 3130 3130 3129 3130 3130 3130 3130 3130 3131 3131 3132 3132 3133 3133 3134 3134 3134 3134 3135 3136 3137 3138 3140 3143 3145 3146 3148 3150 3152 3155 3157 3158 3160 3162 3163 3164 3164 3165 3167 3167 3167 3169 3169 3170 3171 3171 3171 3171 3171 3171 3171 3172 3172 3172 3173 3173 3174 3174 3175 3175 3176 3175 3175 3175 3176 3176 3177 3177 3178 3179
3141 3140 3139 3138 3138 3137 3136 3135 3134 3133 3132 3132 3131 3130 3129 3129 3129 3128 3128 3128 3128 3128 3128 3128 3128 3128 3128 3129 3129 3130 3130 3131 3132 3132 3132 3133 3134 3134 3135 3136 3138 3140 3141 3143 3145 3147 3149 3151 3153 3156 3158 3160 3161 3162 3163 3165 3166 3166 3167 3168 3169 3169 3170 3170 3171 3170 3170 3170 3170 3171 3171 3172 3172 3172 3173 3174 3175 3175 3176 3176 3175 3175 3175 3176 3176 3177 3178 3179
3139 3138 3137 3136 3135 3134 3134 3133 3132 3131 3130 3130 3129 3128 3127 3126 3126 3126 3126 3126 3126 3126 3126 3126 3125 3126 3126 3126 3127 3127 3127 3129 3130 3129 3130 3132 3133 3133 3134 3135 3136 3138 3139 3140 3142 3144 3147 3149 3152 3154 3157 3159 3160 3161 3162 3164 3164 3164 3166 3168 3168 3169 3169 3170 3170 3170 3170 3170 3170 3170 3170 3171 3171 3171 3172 3172 3174 3175 3175 3176 3176 3175 3175 3175 3176 3177 3178 3179
3137 3136 3135 3134 3133 3132 3131 3130 3129 3129 3128 3128 3127 3125 3125 3124 3124 3124 3124 3124 3124 3124 3124 3123 3123 3123 3124 3124 3124 3124 3125 3127 3127 3126 3128 3130 3131 3131 3132 3133 3135 3136 3137 3139 3141 3143 3146 3148 3151 3154 3155 3157 3159 3159 3161 3162 3163 3163 3165 3167 3167 3168 3168 3169 3169 3169 3169 3169 3169 3169 3169 3170 3170 3170 3171 3171 3172 3174 3175 3175 3176 3176 3175 3175 3176 3177 3178 3179
3134 3133 3132 3131 3130 3129 3128 3127 3127 3126 3126 3125 3124 3123 3123 3123 3123 3122 3122 3122 3122 3121 3121 3121 3121 3121 3121 3122 3122 3122 3123 3124 3123 3124 3126 3128 3129 3129 3130 3132 3133 3134 3135 3137 3140 3142 3144 3147 3150 3153 3155 3156 3157 3158 3160 3160 3161 3162 3164 3165 3166 3166 3167 3167 3167 3168 3168 3168 3168 3168 3168 3168 3168 3169 3169 3169 3171 3173 3174 3175 3175 3176 3176 3175 3175 3176 3178 3179
3131 3130 3129 3128 3127 3126 3125 3124 3124 3124 3123 3123 3122 3121 3121 3121 3121 3120 3120 3119 3119 3119 3119 3119 3119 3119 3119 3119 3120 3120 3121 3121 3121 3122 3124 3126 3127 3128 3129 3130 3131 3132 3134 3136 3137 3139 3143 3147 3150 3152 3154 3155 3156 3156 3157 3158 3160 3161 3162 3163 3164 3164 3165 3166 3166 3167 3167 3168 3168 3167 3167 3167 3167 3167 3166 3168 3170 3171 3173 3174 3174 3175 3176 3176 3175 3176 3177 3178
3129 3128 3126 3125 3124 3123 3122 3121 3121 3121 3120 3120 3119 3119 3119 3119 3118 3117 3117 3117 3117 3117 3117 3117 3116 3117 3117 3117 3118 3118 3118 3119 3120 3120 3122 3123 3124 3126 3127 3128 3130 3131 3132 3134 3136 3139 3143 3146 3149 3150 3152 3153 3154 3155 3155 3157 3158 3160 3160 3160 3162 3163 3163 3164 3165 3166 3167 3167 3167 3167 3166 3165 3165 3165 3165 3166 3168 3170 3172 3173 3174 3175 3175 3176 3175 3175 3176 3178
3127 3125 3124 3123 3122 3121 3120 3118 3118 3117 3117 3117 3116 3116 3116 3116 3116 3115 3115 3115 3114 3114 3114 3114 3114 3114 3115 3115 3116 3115 3114 3116 3117 3118 3120 3121 3122 3123 3125 3127 3128 3130 3131 3134 3136 3139 3142 3144 3145 3147 3149 3151 3152 3153 3154 3155 3156 3158 3158 3159 3160 3161 3161 3162 3164 3165 3165 3165 3166 3166 3164 3162 3162 3163 3164 3166 3167 3168 3170 3172 3173 3174 3175 3175 3175 3175 3175 3176
3125 3123 3122 3121 3119 3118 3117 3116 3115 3115 3114 3114 3113 3113 3113 3113 3113 3113 3112 3112 3112 3112 3111 3112 3112 3112 3112 3113 3114 3112 3112 3113 3114 3115 3117 3119 3120 3122 3123 3125 3127 3128 3130 3133 3135 3137 3139 3140 3142 3145 3148 3149 3150 3152 3152 3153 3154 3156 3157 3157 3158 3159 3159 3161 3163 3163 3163 3164 3165 3166 3163 3159 3160 3162 3164 3165 3166 3167 3169 3170 3171 3172 3174 3174 3175 3175 3175 3175
3123 3121 3120 3119 3117 3115 3114 3113 3112 3111 3111 3111 3110 3110 3109 3110 3110 3110 3110 3109 3109 3109 3109 3109 3109 3109 3110 3112 3112 3110 3110 3111 3112 3114 3116 3117 3118 3120 3122 3124 3125 3126 3128 3130 3133 3135 3137 3138 3141 3143 3145 3146 3148 3150 3151 3151 3152 3153 3155 3155 3156 3156 3157 3159 3161 3161 3162 3163 3163 3164 3161 3158 3159 3161 3163 3164 3165 3166 3167 3169 3170 3171 3172 3173 3174 3174 3174 3175
3120 3119 3118 3116 3115 3113 3111 3110 3109 3108 3108 3108 3107 3106 3106 3106 3106 3106 3106 3106 3107 3106 3106 3106 3106 3106 3107 3110 3110 3109 3109 3109 3111 3113 3114 3115 3117 3118 3120 3122 3124 3125 3126 3128 3130 3132 3134 3136 3138 3139 3141 3143 3146 3147 3149 3150 3150 3151 3153 3153 3153 3154 3155 3157 3159 3160 3161 3161 3162 3162 3159 3157 3158 3159 3161 3162 3164 3165 3166 3167 3168 3170 3171 3172 3173 3174 3174 3174
3118 3117 3116 3114 3112 3110 3108 3107 3107 3106 3105 3104 3104 3103 3103 3103 3103 3103 3103 3103 3103 3103 3103 3103 3103 3103 3104 3106 3107 3106 3107 3107 3109 3111 3111 3112 3115 3117 3119 3121 3122 3123 3125 3127 3129 3130 3132 3134 3135 3137 3139 3141 3143 3144 3147 3148 3148 3149 3150 3151 3151 3152 3154 3155 3157 3158 3159 3159 3159 3160 3158 3156 3157 3158 3159 3161 3162 3163 3164 3165 3167 3168 3170 3171 3172 3173 3173 3174
3116 3115 3114 3112 3110 3108 3106 3105 3104 3103 3102 3101 3101 3100 3099 3099 3099 3099 3099 3100 3100 3100 3100 3100 3100 3100 3100 3102 3103 3104 3104 3105 3106 3107 3108 3110 3113 3115 3116 3118 3120 3122 3124 3125 3127 3128 3130 3131 3132 3134 3136 3137 3139 3142 3144 3143 3143 3146 3147 3148 3150 3151 3152 3154 3155 3156 3157 3157 3157 3158 3156 3155 3156 3156 3157 3159 3160 3162 3162 3164 3165 3166 3168 3169 3170 3171 3172 3173
3114 3113 3112 3110 3108 3105 3103 3102 3101 3100 3099 3098 3098 3097 3096 3096 3096 3096 3096 3096 3096 3097 3097 3097 3097 3097 3097 3099 3099 3100 3101 3102 3103 3105 3106 3108 3110 3113 3114 3117 3118 3120 3122 3123 3124 3126 3127 3128 3130 3131 3132 3133 3134 3136 3137 3136 3139 3143 3145 3147 3148 3149 3151 3151 3153 3155 3155 3155 3155 3155 3153 3153 3155 3154 3155 3156 3158 3160 3161 3162 3163 3165 3166 3168 3169 3170 3171 3171
3111 3110 3109 3107 3106 3103 3100 3098 3098 3097 3097 3095 3094 3093 3092 3092 3092 3092 3092 3093 3093 3093 3093 3092 3093 3094 3095 3095 3096 3097 3098 3099 3100 3102 3104 3106 3108 3110 3112 3115 3116 3118 3119 3120 3121 3123 3124 3125 3126 3125 3125 3126 3128 3130 3133 3134 3138 3142 3144 3146 3147 3148 3149 3149 3151 3153 3154 3153 3153 3153 3152 3152 3153 3152 3153 3154 3156 3158 3159 3160 3161 3163 3164 3166 3167 3168 3169 3170
3108 3106 3105 3104 3103 3101 3097 3095 3094 3093 3093 3092 3091 3090 3089 3088 3088 3088 3089 3089 3089 3089 3089 3089 3089 3091 3092 3093 3093 3094 3095 3096 3097 3099 3101 3103 3106 3108 3110 3111 3113 3115 3115 3117 3118 3120 3123 3122 3118 3117 3119 3123 3126 3130 3133 3136 3139 3142 3144 3145 3145 3146 3146 3147 3149 3151 3152 3152 3151 3151 3150 3150 3151 3150 3151 3152 3153 3155 3156 3157 3159 3160 3162 3163 3165 3167 3168 3169
3104 3103 3102 3101 3100 3098 3094 3092 3090 3089 3088 3088 3088 3086 3085 3084 3083 3083 3084 3085 3085 3084 3084 3086 3085 3085 3088 3089 3090 3091 3092 3093 3094 3096 3098 3100 3103 3105 3106 3107 3109 3109 3111 3115 3117 3119 3120 3115 3112 3115 3119 3123 3127 3130 3133 3135 3138 3140 3142 3143 3144 3143 3143 3145 3147 3149 3151 3150 3149 3149 3149 3148 3149 3149 3149 3149 3150 3151 3154 3156 3157 3158 3160 3162 3163 3165 3166 3168
3101 3099 3098 3098 3096 3094 3091 3088 3087 3085 3084 3084 3084 3082 3081 3080 3079 3078 3078 3079 3082 3080 3078 3081 3080 3081 3085 3085 3086 3088 3088 3089 3091 3092 3094 3096 3098 3100 3102 3103 3104 3105 3108 3112 3114 3115 3114 3108 3108 3114 3119 3124 3127 3129 3131 3134 3136 3138 3140 3141 3141 3140 3141 3144 3146 3147 3149 3149 3147 3148 3147 3146 3146 3147 3147 3146 3146 3149 3152 3153 3155 3156 3158 3160 3162 3163 3164 3166
3097 3095 3094 3094 3094 3092 3089 3086 3084 3082 3081 3081 3080 3079 3077 3076 3075 3074 3072 3071 3076 3077 3076 3076 3075 3076 3080 3081 3081 3082 3083 3086 3087 3088 3091 3092 3093 3096 3098 3099 3101 3103 3106 3107 3107 3108 3107 3104 3107 3113 3118 3122 3125 3127 3129 3131 3133 3134 3136 3137 3136 3137 3140 3142 3144 3145 3147 3147 3146 3146 3145 3143 3144 3145 3144 3144 3144 3147 3149 3151 3152 3154 3156 3158 3160 3161 3162 3164
3093 3091 3090 3090 3090 3089 3086 3084 3081 3079 3079 3078 3077 3076 3074 3073 3072 3071 3069 3066 3066 3071 3072 3071 3069 3071 3074 3075 3076 3077 3079 3082 3084 3085 3087 3087 3090 3093 3094 3096 3099 3100 3101 3102 3103 3104 3103 3102 3106 3112 3116 3119 3122 3124 3126 3128 3129 3130 3131 3132 3132 3134 3138 3140 3142 3143 3145 3145 3145 3145 3144 3141 3141 3142 3142 3142 3143 3144 3146 3147 3148 3150 3154 3156 3156 3158 3160 3162
3089 3088 3086 3085 3086 3086 3084 3082 3080 3077 3076 3075 3074 3073 3072 3070 3070 3068 3067 3063 3061 3065 3066 3064 3064 3066 3067 3068 3069 3073 3076 3076 3079 3083 3082 3083 3087 3089 3091 3094 3096 3097 3097 3100 3103 3103 3102 3103 3105 3109 3112 3116 3119 3119 3121 3123 3126 3126 3126 3128 3131 3133 3136 3139 3140 3142 3144 3144 3143 3145 3143 3137 3137 3139 3139 3140 3141 3141 3143 3144 3144 3147 3151 3153 3153 3155 3158 3160
3085 3084 3083 3081 3081 3082 3082 3080 3079 3076 3074 3073 3071 3071 3070 3069 3068 3067 3066 3062 3058 3060 3060 3058 3059 3061 3062 3062 3063 3069 3071 3071 3076 3079 3078 3081 3085 3086 3088 3090 3092 3094 3095 3099 3102 3100 3100 3102 3105 3107 3110 3113 3115 3115 3117 3121 3124 3124 3122 3126 3130 3132 3135 3137 3139 3141 3142 3141 3141 3143 3142 3136 3134 3135 3136 3138 3138 3139 3140 3140 3142 3144 3147 3149 3151 3153 3155 3157
3082 3080 3079 3078 3076 3077 3078 3077 3076 3073 3072 3071 3069 3068 3068 3067 3067 3066 3066 3063 3057 3056 3057 3055 3056 3056 3058 3058 3059 3064 3066 3067 3071 3073 3074 3078 3081 3083 3085 3086 3088 3090 3093 3099 3099 3094 3095 3100 3102 3105 3108 3110 3111 3111 3113 3118 3122 3121 3120 3125 3129 3131 3134 3135 3138 3139 3139 3139 3139 3139 3141 3137 3130 3130 3133 3135 3136 3136 3137 3137 3139 3141 3143 3145 3148 3150 3153 3155
3080 3077 3076 3076 3074 3073 3073 3073 3073 3071 3070 3069 3067 3066 3066 3066 3067 3066 3068 3065 3056 3053 3054 3053 3053 3054 3055 3055 3056 3059 3061 3063 3065 3067 3071 3075 3076 3079 3081 3082 3085 3087 3089 3093 3092 3088 3092 3097 3098 3100 3104 3106 3106 3107 3111 3116 3119 3118 3119 3124 3128 3130 3132 3134 3137 3137 3138 3138 3134 3134 3138 3136 3126 3124 3129 3132 3133 3133 3133 3134 3136 3137 3140 3142 3145 3147 3150 3153
3077 3074 3072 3073 3073 3071 3070 3069 3069 3069 3067 3067 3065 3064 3064 3065 3065 3066 3069 3065 3055 3052 3053 3052 3052 3053 3053 3054 3054 3056 3057 3059 3061 3062 3066 3070 3071 3074 3076 3079 3083 3086 3087 3090 3090 3089 3091 3094 3097 3099 3101 3101 3103 3106 3110 3114 3116 3117 3120 3124 3127 3129 3131 3133 3135 3135 3137 3134 3127 3128 3134 3133 3123 3118 3124 3127 3128 3129 3130 3132 3134 3135 3137 3139 3142 3144 3147 3150
3075 3071 3069 3069 3070 3070 3069 3067 3066 3066 3065 3064 3063 3062 3063 3063 3064 3066 3067 3060 3052 3050 3051 3051 3051 3051 3051 3052 3053 3053 3054 3056 3058 3059 3061 3064 3067 3071 3074 3078 3082 3084 3086 3088 3089 3089 3089 3094 3096 3097 3099 3100 3103 3106 3109 3112 3115 3117 3120 3123 3126 3128 3129 3132 3132 3134 3135 3125 3120 3125 3130 3132 3122 3111 3116 3121 3122 3126 3129 3131 3132 3133 3135 3136 3139 3141 3143 3146
3072 3069 3066 3065 3066 3067 3067 3067 3065 3063 3062 3062 3061 3060 3061 3061 3062 3064 3060 3052 3049 3050 3049 3049 3049 3049 3050 3051 3051 3052 3053 3054 3055 3056 3058 3060 3063 3066 3069 3074 3077 3082 3085 3084 3085 3087 3089 3092 3092 3093 3096 3099 3102 3104 3107 3110 3113 3116 3119 3122 3125 3126 3128 3130 3130 3132 3128 3116 3116 3122 3126 3131 3120 3105 3108 3115 3119 3124 3127 3128 3130 3132 3133 3134 3136 3138 3141 3143
3070 3067 3064 3062 3062 3062 3062 3063 3062 3061 3060 3059 3059 3058 3059 3060 3059 3056 3050 3047 3048 3048 3046 3047 3047 3047 3048 3049 3049 3050 3051 3052 3053 3054 3055 3056 3058 3059 3061 3065 3068 3073 3076 3077 3080 3084 3086 3087 3088 3091 3094 3096 3098 3101 3104 3107 3109 3112 3115 3118 3121 3123 3126 3125 3124 3123 3118 3113 3115 3119 3123 3123 3112 3103 3106 3111 3115 3121 3124 3126 3128 3130 3131 3132 3134 3136 3138 3140
3067 3064 3062 3059 3058 3059 3058 3058 3059 3058 3057 3057 3057 3056 3057 3058 3053 3048 3047 3047 3046 3044 3044 3044 3044 3045 3046 3046 3047 3048 3048 3049 3050 3052 3053 3055 3056 3056 3059 3062 3063 3066 3068 3071 3077 3080 3082 3084 3086 3088 3089 3091 3093 3095 3097 3099 3103 3106 3108 3111 3113 3115 3118 3117 3116 3115 3113 3112 3114 3118 3122 3114 3104 3103 3104 3107 3112 3116 3120 3124 3126 3127 3129 3130 3131 3133 3135 3137
3064 3061 3060 3058 3056 3056 3055 3055 3055 3055 3055 3054 3054 3054 3054 3053 3048 3045 3046 3045 3042 3042 3043 3043 3042 3044 3045 3045 3046 3046 3047 3047 3047 3049 3051 3053 3054 3055 3057 3060 3062 3065 3067 3071 3074 3074 3077 3078 3077 3079 3082 3084 3087 3090 3092 3094 3099 3102 3105 3108 3108 3107 3108 3109 3109 3109 3110 3110 3111 3117 3116 3104 3099 3101 3101 3104 3110 3112 3117 3121 3123 3125 3126 3127 3129 3130 3132 3133
3063 3059 3057 3056 3054 3053 3052 3052 3051 3051 3052 3052 3052 3052 3050 3048 3046 3045 3044 3042 3040 3040 3040 3042 3042 3042 3043 3044 3044 3044 3045 3045 3045 3047 3049 3050 3052 3052 3055 3057 3060 3063 3066 3069 3069 3070 3072 3071 3070 3074 3078 3080 3084 3088 3091 3094 3098 3100 3103 3106 3104 3101 3104 3107 3106 3107 3108 3109 3109 3110 3104 3095 3096 3099 3100 3104 3107 3109 3114 3117 3120 3122 3123 3125 3126 3127 3129 3130
3062 3058 3055 3053 3052 3051 3050 3049 3048 3048 3049 3049 3049 3048 3047 3046 3045 3044 3042 3041 3040 3039 3039 3041 3041 3041 3041 3041 3042 3042 3043 3043 3044 3045 3047 3049 3050 3051 3053 3056 3058 3061 3063 3065 3065 3065 3068 3068 3069 3073 3076 3078 3082 3085 3087 3091 3093 3095 3098 3099 3096 3099 3105 3107 3106 3106 3108 3107 3104 3102 3097 3094 3097 3097 3098 3102 3104 3107 3111 3113 3116 3119 3120 3123 3123 3124 3126 3126
3060 3057 3054 3051 3050 3049 3048 3047 3046 3045 3045 3046 3046 3045 3044 3044 3043 3042 3040 3040 3040 3040 3040 3041 3041 3040 3039 3039 3039 3040 3040 3041 3042 3043 3045 3046 3048 3048 3050 3052 3055 3057 3060 3061 3060 3061 3064 3066 3067 3070 3073 3075 3080 3083 3086 3088 3089 3091 3093 3091 3094 3101 3106 3106 3106 3105 3105 3103 3099 3096 3095 3095 3096 3094 3094 3098 3101 3103 3107 3110 3113 3115 3117 3120 3120 3122 3123 3124
3056 3054 3051 3050 3048 3046 3045 3045 3044 3043 3043 3042 3043 3042 3041 3041 3041 3040 3039 3038 3039 3040 3041 3041 3040 3038 3038 3037 3037 3037 3038 3039 3040 3041 3042 3043 3044 3044 3046 3049 3050 3052 3054 3055 3057 3059 3062 3065 3065 3067 3071 3074 3077 3081 3083 3085 3087 3089 3089 3088 3093 3098 3099 3101 3102 3100 3100 3099 3095 3093 3093 3091 3090 3089 3090 3094 3098 3100 3103 3106 3109 3112 3114 3116 3118 3119 3120 3121
3052 3051 3049 3048 3046 3044 3042 3042 3041 3040 3040 3040 3040 3040 3038 3038 3039 3039 3037 3037 3039 3040 3040 3041 3039 3037 3037 3037 3036 3036 3036 3037 3038 3039 3040 3040 3040 3041 3043 3044 3046 3047 3049 3051 3054 3057 3061 3063 3063 3065 3069 3072 3073 3075 3077 3079 3082 3085 3087 3087 3090 3092 3092 3094 3095 3094 3095 3095 3093 3092 3089 3082 3080 3084 3089 3092 3095 3099 3101 3103 3105 3108 3111 3113 3115 3117 3118 3119
3050 3048 3046 3045 3044 3042 3040 3039 3039 3038 3038 3037 3037 3037 3037 3036 3036 3037 3036 3036 3037 3038 3038 3039 3038 3036 3036 3036 3036 3035 3035 3036 3036 3037 3037 3037 3038 3039 3040 3041 3042 3043 3045 3048 3053 3056 3059 3061 3061 3063 3066 3067 3066 3067 3070 3073 3076 3078 3081 3083 3085 3088 3089 3090 3090 3090 3092 3092 3091 3090 3084 3075 3075 3081 3086 3090 3094 3097 3099 3101 3103 3105 3108 3110 3112 3114 3115 3116
3048 3045 3044 3043 3042 3040 3038 3037 3037 3036 3036 3036 3035 3035 3035 3035 3034 3034 3035 3035 3035 3036 3036 3036 3036 3036 3035 3035 3035 3035 3034 3034 3035 3036 3036 3036 3037 3037 3038 3039 3040 3041 3043 3047 3051 3053 3055 3056 3058 3060 3062 3061 3061 3064 3068 3071 3071 3072 3075 3076 3079 3083 3086 3088 3086 3085 3088 3088 3087 3087 3080 3071 3073 3079 3084 3088 3091 3094 3097 3098 3100 3103 3105 3107 3109 3111 3113 3114
3046 3044 3042 3041 3040 3038 3037 3036 3035 3035 3034 3034 3034 3034 3034 3033 3033 3032 3032 3033 3033 3033 3033 3034 3035 3035 3034 3033 3033 3034 3034 3033 3034 3035 3035 3034 3035 3036 3036 3037 3038 3040 3041 3044 3046 3047 3049 3052 3055 3058 3058 3058 3061 3064 3067 3068 3069 3070 3071 3072 3076 3079 3081 3082 3079 3079 3084 3085 3085 3087 3080 3070 3072 3078 3083 3087 3089 3091 3094 3096 3098 3100 3102 3104 3106 3108 3110 3111
3046 3043 3041 3040 3038 3037 3036 3035 3035 3035 3034 3034 3034 3033 3033 3032 3032 3031 3031 3031 3031 3031 3031 3032 3033 3033 3032 3031 3032 3032 3033 3033 3033 3033 3033 3033 3033 3034 3035 3035 3037 3038 3039 3041 3042 3044 3047 3050 3053 3055 3057 3058 3061 3064 3065 3065 3066 3067 3067 3069 3071 3073 3075 3077 3076 3077 3080 3080 3082 3086 3079 3070 3071 3076 3081 3085 3088 3090 3092 3093 3095 3097 3099 3101 3103 3105 3107 3109
3045 3043 3041 3039 3038 3036 3036 3035 3035 3034 3034 3034 3033 3033 3032 3031 3030 3030 3030 3029 3028 3028 3030 3031 3030 3029 3029 3030 3030 3031 3031 3032 3032 3032 3031 3031 3031 3032 3033 3034 3036 3036 3037 3038 3039 3041 3044 3046 3049 3052 3055 3057 3059 3060 3060 3060 3060 3061 3062 3065 3066 3068 3072 3074 3074 3076 3075 3074 3078 3079 3072 3068 3072 3075 3079 3083 3086 3088 3090 3092 3094 3095 3096 3099 3101 3102 3105 3106
3044 3042 3041 3039 3037 3036 3035 3035 3034 3034 3033 3032 3032 3032 3031 3030 3030 3029 3029 3028 3027 3027 3028 3028 3028 3027 3028 3029 3029 3029 3029 3030 3030 3030 3030 3029 3029 3031 3032 3033 3034 3035 3036 3036 3037 3039 3041 3042 3044 3046 3047 3048 3049 3050 3050 3052 3055 3056 3058 3060 3061 3064 3068 3069 3071 3072 3068 3069 3072 3069 3066 3068 3072 3074 3079 3082 3084 3086 3089 3090 3091 3093 3094 3096 3098 3100 3102 3104
3043 3041 3039 3038 3037 3036 3035 3035 3034 3033 3032 3031 3031 3030 3029 3029 3029 3028 3027 3027 3026 3025 3026 3026 3026 3026 3027 3027 3028 3028 3027 3028 3029 3028 3028 3028 3028 3030 3031 3032 3033 3034 3034 3035 3036 3037 3039 3040 3041 3042 3041 3042 3042 3043 3046 3048 3050 3052 3054 3055 3057 3059 3062 3064 3066 3063 3062 3066 3065 3061 3064 3069 3070 3073 3078 3081 3084 3086 3087 3089 3090 3091 3093 3095 3096 3098 3099 3101
3043 3041 3039 3037 3037 3036 3036 3035 3034 3033 3032 3030 3030 3029 3028 3028 3027 3027 3026 3025 3024 3024 3025 3024 3024 3025 3025 3025 3026 3026 3026 3026 3027 3026 3026 3026 3027 3028 3030 3031 3032 3033 3033 3034 3035 3036 3037 3039 3039 3039 3039 3039 3040 3042 3044 3045 3046 3048 3050 3051 3053 3055 3058 3058 3057 3056 3060 3064 3058 3056 3064 3068 3067 3072 3077 3079 3083 3085 3086 3088 3089 3089 3091 3093 3094 3096 3097 3098
3043 3041 3040 3038 3037 3036 3035 3034 3034 3033 3032 3030 3029 3028 3028 3027 3026 3025 3024 3024 3024 3024 3023 3023 3023 3022 3023 3024 3024 3024 3024 3025 3025 3025 3025 3025 3026 3027 3029 3030 3031 3032 3032 3033 3034 3035 3037 3038 3037 3037 3037 3037 3038 3041 3042 3042 3043 3044 3046 3047 3049 3051 3052 3052 3054 3056 3059 3059 3054 3055 3063 3065 3066 3071 3074 3077 3081 3083 3084 3086 3086 3088 3089 3090 3092 3094 3095 3096
3042 3041 3040 3039 3037 3036 3035 3034 3034 3033 3031 3030 3029 3028 3027 3027 3026 3024 3023 3022 3023 3023 3022 3022 3021 3021 3021 3022 3022 3023 3023 3023 3023 3023 3024 3024 3025 3026 3027 3029 3030 3031 3032 3033 3033 3034 3035 3036 3036 3036 3036 3037 3038 3039 3040 3040 3040 3040 3041 3043 3045 3047 3048 3051 3053 3055 3056 3056 3055 3058 3061 3061 3063 3067 3070 3075 3079 3080 3082 3083 3084 3086 3087 3088 3089 3090 3092 3093
3042 3040 3039 3038 3037 3036 3035 3034 3033 3032 3031 3029 3028 3027 3026 3026 3025 3024 3023 3022 3021 3021 3021 3020 3020 3020 3020 3020 3021 3021 3021 3021 3021 3022 3023 3023 3024 3025 3026 3027 3028 3029 3030 3032 3032 3033 3034 3035 3035 3034 3035 3036 3037 3038 3038 3038 3037 3036 3037 3038 3040 3042 3045 3048 3050 3052 3053 3053 3054 3057 3057 3055 3058 3064 3067 3071 3074 3077 3079 3081 3082 3083 3084 3085 3086 3087 3088 3090
3042 3040 3038 3037 3035 3035 3034 3033 3032 3031 3030 3029 3028 3026 3025 3024 3023 3022 3022 3021 3020 3020 3020 3019 3019 3019 3018 3018 3019 3019 3019 3019 3019 3020 3021 3022 3022 3023 3024 3025 3026 3027 3028 3030 3031 3032 3033 3034 3033 3034 3034 3034 3035 3036 3036 3035 3035 3034 3033 3034 3037 3039 3040 3043 3045 3047 3049 3050 3051 3052 3050 3049 3054 3061 3064 3067 3070 3073 3075 3078 3079 3080 3081 3082 3083 3084 3085 3086
3042 3040 3039 3036 3034 3034 3033 3032 3031 3030 3029 3028 3027 3025 3024 3023 3023 3021 3020 3019 3019 3019 3019 3018 3018 3017 3017 3017 3017 3017 3016 3017 3017 3017 3018 3019 3020 3021 3022 3023 3024 3025 3026 3028 3029 3031 3032 3032 3033 3034 3033 3032 3034 3034 3034 3034 3034 3030 3027 3030 3034 3035 3036 3039 3041 3043 3045 3047 3047 3045 3044 3047 3054 3059 3061 3063 3066 3068 3070 3073 3075 3077 3078 3079 3080 3081 3083 3084